CW3518 Weather Reports


Display with metric or nautical units.
time (UTC)temp
F
wind
direction
speed
MPH
gust
MPH
rain 1hr
in
rain 24hr
in
rain mn
in
humidity
%
barometer
mb
20210305105410 53 164 12.0 14.0 0.00 0.00 0.00 78 1011.5
20210305104523 53 164 10.0 14.0 0.00 0.00 0.00 77 1011.4
20210305104028 53 172 12.0 14.0 0.00 0.00 0.00 76 1011.3
20210305103525 53 165 12.0 14.0 0.00 0.00 0.00 76 1011.4
20210305103027 53 162 13.0 16.0 0.00 0.00 0.00 75 1011.3
20210305102745 53 162 13.0 17.0 0.00 0.00 0.00 75 1011.3
20210305102152 54 162 14.0 17.0 0.00 0.00 0.00 74 1011.2
20210305101541 54 167 13.0 16.0 0.00 0.00 0.00 73 1011.1
20210305101045 54 161 14.0 16.0 0.00 0.00 0.00 73 1011.1
20210305100525 54 173 14.0 17.0 0.00 0.00 0.00 72 1011.2
20210305100118 54 166 13.0 18.0 0.00 0.00 0.00 71 1011.3
20210305095838 55 165 11.0 18.0 0.00 0.00 0.00 71 1011.2
20210305095156 55 164 18.0 18.0 0.00 0.00 0.00 70 1011.2
20210305094523 55 164 15.0 17.0 0.00 0.00 0.00 70 1011.3
20210305094027 55 165 13.0 17.0 0.00 0.00 0.00 70 1011.4
20210305093519 55 155 15.0 18.0 0.00 0.00 0.00 69 1011.4
20210305093032 55 156 14.0 18.0 0.00 0.00 0.00 68 1011.5
20210305092809 55 156 12.0 18.0 0.00 0.00 0.00 68 1011.6
20210305092354 56 163 17.0 24.0 0.00 0.00 0.00 67 1011.5
20210305091524 56 162 14.0 24.0 0.00 0.00 0.00 66 1011.6
20210305091029 56 173 13.0 20.0 0.00 0.00 0.00 65 1011.7
20210305090518 56 164 15.0 17.0 0.00 0.00 0.00 65 1011.6
20210305090027 57 173 14.0 17.0 0.00 0.00 0.00 64 1011.7
20210305085744 57 162 14.0 17.0 0.00 0.00 0.00 63 1011.7
20210305085222 57 162 16.0 17.0 0.00 0.00 0.00 63 1011.7
20210305084523 57 158 13.0 19.0 0.00 0.00 0.00 62 1011.6
20210305084035 57 169 17.0 19.0 0.00 0.00 0.00 61 1011.6
20210305083519 57 173 16.0 21.0 0.00 0.00 0.00 61 1011.7
20210305083124 57 166 16.0 21.0 0.00 0.00 0.00 60 1011.7
20210305082905 57 175 13.0 20.0 0.00 0.00 0.00 60 1011.8
20210305082354 58 180 15.0 20.0 0.00 0.00 0.00 59 1011.7
20210305081524 58 175 15.0 20.0 0.00 0.00 0.00 59 1011.8
20210305081022 58 167 18.0 20.0 0.00 0.00 0.00 58 1011.9
20210305080530 58 167 14.0 20.0 0.00 0.00 0.00 58 1011.9
20210305080048 58 163 18.0 20.0 0.00 0.00 0.00 58 1011.8
20210305075927 58 184 16.0 20.0 0.00 0.00 0.00 57 1011.8
20210305075407 59 182 16.0 22.0 0.00 0.00 0.00 56 1011.8
20210305074528 59 174 15.0 22.0 0.00 0.00 0.00 56 1011.9
20210305074034 59 171 15.0 22.0 0.00 0.00 0.00 56 1011.8
20210305073521 59 173 12.0 21.0 0.00 0.00 0.00 56 1011.9
20210305073020 59 170 18.0 20.0 0.00 0.00 0.00 55 1011.8
20210305072818 58 161 18.0 19.0 0.00 0.00 0.00 55 1011.7
20210305072232 59 148 18.0 19.0 0.00 0.00 0.00 55 1011.8
20210305071520 59 152 17.0 18.0 0.00 0.00 0.00 54 1011.9
20210305071024 59 157 15.0 18.0 0.00 0.00 0.00 54 1012.0
20210305070525 59 167 16.0 19.0 0.00 0.00 0.00 54 1012.1
20210305070116 59 166 14.0 19.0 0.00 0.00 0.00 54 1012.2
20210305065827 59 162 16.0 18.0 0.00 0.00 0.00 54 1012.2
20210305065306 58 161 17.0 17.0 0.00 0.00 0.00 54 1012.3
20210305064539 58 160 14.0 17.0 0.00 0.00 0.00 54 1012.5
20210305064021 58 148 14.0 16.0 0.00 0.00 0.00 54 1012.4
20210305063521 58 163 15.0 16.0 0.00 0.00 0.00 54 1012.4
20210305063130 58 158 14.0 15.0 0.00 0.00 0.00 54 1012.4
20210305062935 58 154 14.0 15.0 0.00 0.00 0.00 54 1012.4
20210305062438 58 150 13.0 15.0 0.00 0.00 0.00 54 1012.4
20210305061525 58 147 12.0 15.0 0.00 0.00 0.00 54 1012.5
20210305061025 58 154 12.0 16.0 0.00 0.00 0.00 54 1012.6
20210305060524 58 155 13.0 16.0 0.00 0.00 0.00 53 1012.7
20210305060032 58 156 15.0 17.0 0.00 0.00 0.00 53 1012.5
20210305055827 58 161 12.0 17.0 0.00 0.00 0.00 53 1012.4
20210305055150 58 156 14.0 18.0 0.00 0.00 0.00 53 1012.4
20210305054526 59 149 14.0 18.0 0.00 0.00 0.00 53 1012.4
20210305054019 58 156 15.0 18.0 0.00 0.00 0.00 52 1012.5
20210305053524 58 160 14.0 18.0 0.00 0.00 0.00 53 1012.6
20210305053024 58 164 16.0 17.0 0.00 0.00 0.00 53 1012.8
20210305052806 58 159 14.0 14.0 0.00 0.00 0.00 53 1013.1
20210305052159 58 157 12.0 14.0 0.00 0.00 0.00 53 1013.2
20210305051526 58 159 12.0 13.0 0.00 0.00 0.00 53 1013.3
20210305051021 59 154 10.0 14.0 0.00 0.00 0.00 53 1013.4
20210305050519 59 155 11.0 14.0 0.00 0.00 0.00 51 1013.4
20210305050023 59 153 10.0 15.0 0.00 0.00 0.00 51 1013.5
20210305045813 59 154 11.0 15.0 0.00 0.00 0.00 50 1013.5
20210305045223 59 170 13.0 16.0 0.00 0.00 0.00 50 1013.5
20210305044523 59 159 12.0 16.0 0.00 0.00 0.00 50 1013.5
20210305044025 59 163 12.0 16.0 0.00 0.00 0.00 51 1013.5
20210305043529 59 161 11.0 13.0 0.00 0.00 0.00 51 1013.5
20210305043112 59 152 10.0 13.0 0.00 0.00 0.00 52 1013.4
20210305042903 59 146 11.0 11.0 0.00 0.00 0.00 51 1013.5
20210305042219 59 142 10.0 11.0 0.00 0.00 0.00 52 1013.7
20210305041534 59 145 9.0 11.0 0.00 0.00 0.00 51 1013.7
20210305041030 59 147 11.0 12.0 0.00 0.00 0.00 51 1013.6
20210305040531 59 147 10.0 13.0 0.00 0.00 0.00 50 1013.6
20210305040256 60 142 12.0 14.0 0.00 0.00 0.00 49 1013.6
20210305040125 60 142 11.0 14.0 0.00 0.00 0.00 49 1013.6
20210305035855 60 144 12.0 15.0 0.00 0.00 0.00 48 1013.6
20210305034544 60 145 12.0 15.0 0.00 0.00 0.00 48 1013.5
20210305034027 61 139 12.0 16.0 0.00 0.00 0.00 47 1013.5
20210305033521 61 141 12.0 17.0 0.00 0.00 0.00 47 1013.4
20210305033033 61 130 13.0 17.0 0.00 0.00 0.00 47 1013.4
20210305032608 61 132 14.0 16.0 0.00 0.00 0.00 47 1013.3
20210305032119 60 138 13.0 16.0 0.00 0.00 0.00 48 1013.3
20210305031521 60 132 12.0 15.0 0.00 0.00 0.00 48 1013.3
20210305031034 60 139 12.0 15.0 0.00 0.00 0.00 49 1013.3
20210305030525 60 141 12.0 15.0 0.00 0.00 0.00 49 1013.3
20210305030050 60 134 12.0 13.0 0.00 0.00 0.00 49 1013.3
20210305025924 60 133 12.0 13.0 0.00 0.00 0.00 49 1013.3
20210305025311 60 129 10.0 13.0 0.00 0.00 0.00 50 1013.3
20210305024526 60 124 9.0 13.0 0.00 0.00 0.00 50 1013.3
20210305024028 60 134 11.0 13.0 0.00 0.00 0.00 50 1013.4
20210305023522 60 130 10.0 13.0 0.00 0.00 0.00 51 1013.4
20210305023022 59 136 10.0 12.0 0.00 0.00 0.00 52 1013.4
20210305022849 59 135 10.0 11.0 0.00 0.00 0.00 52 1013.5
20210305022138 59 129 9.0 10.0 0.00 0.00 0.00 52 1013.4
20210305021540 59 131 10.0 10.0 0.00 0.00 0.00 52 1013.5
20210305021025 59 128 8.0 10.0 0.00 0.00 0.00 51 1013.5
20210305020519 60 128 9.0 12.0 0.00 0.00 0.00 51 1013.5
20210305020125 60 131 9.0 12.0 0.00 0.00 0.00 50 1013.5
20210305015857 60 131 9.0 13.0 0.00 0.00 0.00 50 1013.4
20210305015213 61 131 10.0 13.0 0.00 0.00 0.00 50 1013.3
20210305014534 61 135 10.0 12.0 0.00 0.00 0.00 50 1013.4
20210305014025 61 143 9.0 12.0 0.00 0.00 0.00 50 1013.6
20210305013523 62 148 11.0 12.0 0.00 0.00 0.00 49 1013.6
20210305013102 62 145 12.0 13.0 0.00 0.00 0.00 49 1013.7
20210305012856 62 141 11.0 13.0 0.00 0.00 0.00 48 1013.7
20210305012242 63 138 11.0 13.0 0.00 0.00 0.00 48 1013.8
20210305011539 63 142 10.0 13.0 0.00 0.00 0.00 47 1013.9
20210305011023 64 145 11.0 14.0 0.00 0.00 0.00 46 1013.9
20210305010522 64 149 14.0 16.0 0.00 0.00 0.00 45 1013.7
20210305010032 65 160 13.0 18.0 0.00 0.00 0.00 44 1013.7
20210305005819 65 163 15.0 18.0 0.00 0.00 0.00 43 1013.6
20210305005338 66 154 12.0 16.0 0.00 0.00 0.00 44 1013.6
20210305004531 66 167 14.0 16.0 0.00 0.00 0.00 44 1013.7
20210305004028 66 168 15.0 18.0 0.00 0.00 0.00 43 1013.7
20210305003520 67 166 15.0 18.0 0.00 0.00 0.00 42 1013.6
20210305003055 67 163 16.0 18.0 0.00 0.00 0.00 42 1013.5
20210305002748 67 157 9.0 18.0 0.00 0.00 0.00 43 1013.4
20210305002228 67 147 14.0 18.0 0.00 0.00 0.00 43 1013.3
20210305001521 67 142 13.0 20.0 0.00 0.00 0.00 43 1013.2
20210305001025 68 136 14.0 21.0 0.00 0.00 0.00 42 1013.1
20210305000656 68 136 21.0 21.0 0.00 0.00 0.00 42 1013.0
20210304235957 68 137 15.0 20.0 0.00 0.00 0.00 42 1013.1
20210304235424 68 139 13.0 20.0 0.00 0.00 0.00 43 1013.1
20210304234541 68 143 18.0 20.0 0.00 0.00 0.00 41 1013.0
20210304234023 68 133 15.0 24.0 0.00 0.00 0.00 42 1013.0
20210304233529 68 116 16.0 26.0 0.00 0.00 0.00 41 1012.8
20210304233207 68 141 20.0 26.0 0.00 0.00 0.00 40 1012.8
20210304232430 69 121 24.0 26.0 0.00 0.00 0.00 38 1012.6
20210304231522 70 132 18.0 25.0 0.00 0.00 0.00 39 1012.8
20210304231028 70 140 18.0 22.0 0.00 0.00 0.00 40 1013.1
20210304230535 69 127 15.0 22.0 0.00 0.00 0.00 42 1013.2
20210304230134 69 138 18.0 21.0 0.00 0.00 0.00 41 1013.5
20210304225939 69 137 14.0 24.0 0.00 0.00 0.00 42 1013.4
20210304225235 69 140 17.0 24.0 0.00 0.00 0.00 42 1013.1
20210304224533 70 134 20.0 24.0 0.00 0.00 0.00 40 1013.1
20210304224025 70 131 19.0 24.0 0.00 0.00 0.00 41 1013.5
20210304223528 71 135 22.0 24.0 0.00 0.00 0.00 39 1013.8
20210304223053 71 156 21.0 25.0 0.00 0.00 0.00 38 1013.9
20210304222837 71 145 23.0 26.0 0.00 0.00 0.00 37 1013.8
20210304222136 71 130 18.0 26.0 0.00 0.00 0.00 38 1013.6
20210304221523 71 134 24.0 24.0 0.00 0.00 0.00 39 1014.1
20210304221030 71 164 21.0 26.0 0.00 0.00 0.00 40 1014.3
20210304220520 70 151 22.0 26.0 0.00 0.00 0.00 40 1014.1
20210304220211 71 131 19.0 26.0 0.00 0.00 0.00 41 1014.0
20210304220055 70 161 20.0 26.0 0.00 0.00 0.00 40 1014.1
20210304215534 70 138 21.0 23.0 0.00 0.00 0.00 41 1014.0
20210304214526 70 141 21.0 22.0 0.00 0.00 0.00 41 1014.1
20210304214037 70 152 18.0 24.0 0.00 0.00 0.00 41 1014.2
20210304213533 70 154 20.0 24.0 0.00 0.00 0.00 41 1014.4
20210304213030 70 128 18.0 22.0 0.00 0.00 0.00 40 1014.6
20210304212827 70 146 17.0 22.0 0.00 0.00 0.00 40 1014.8
20210304212207 70 142 20.0 23.0 0.00 0.00 0.00 41 1014.8
20210304211529 71 168 13.0 26.0 0.00 0.00 0.00 40 1014.8
20210304211032 70 157 15.0 28.0 0.00 0.00 0.00 41 1014.6
20210304210521 71 138 24.0 28.0 0.00 0.00 0.00 40 1014.5
20210304210023 71 139 18.0 26.0 0.00 0.00 0.00 40 1014.6
20210304205857 71 142 24.0 25.0 0.00 0.00 0.00 40 1014.3
20210304205414 71 137 17.0 28.0 0.00 0.00 0.00 41 1014.6
20210304204547 71 157 26.0 28.0 0.00 0.00 0.00 38 1014.5
20210304204034 71 143 16.0 25.0 0.00 0.00 0.00 41 1014.8
20210304203659 71 126 22.0 23.0 0.00 0.00 0.00 40 1015.0
20210304203405 71 174 16.0 26.0 0.00 0.00 0.00 40 1015.3
20210304203133 71 163 24.0 26.0 0.00 0.00 0.00 38 1015.1
20210304202706 71 161 21.0 24.0 0.00 0.00 0.00 38 1015.4
20210304201540 71 173 18.0 24.0 0.00 0.00 0.00 40 1015.4
20210304201022 71 136 20.0 27.0 0.00 0.00 0.00 39 1015.5
20210304200522 71 158 23.0 27.0 0.00 0.00 0.00 39 1015.4
20210304200250 71 134 24.0 25.0 0.00 0.00 0.00 39 1015.6
20210304200035 71 134 20.0 30.0 0.00 0.00 0.00 40 1015.6
20210304195328 70 157 20.0 30.0 0.00 0.00 0.00 40 1015.8
20210304194527 70 144 24.0 26.0 0.00 0.00 0.00 40 1015.7
20210304194030 70 150 22.0 26.0 0.00 0.00 0.00 41 1016.0
20210304193533 70 167 23.0 26.0 0.00 0.00 0.00 40 1016.1
20210304193151 70 157 17.0 24.0 0.00 0.00 0.00 40 1016.3
20210304192952 70 139 21.0 22.0 0.00 0.00 0.00 42 1016.3
20210304192403 70 154 16.0 24.0 0.00 0.00 0.00 41 1016.6
20210304191532 70 160 18.0 25.0 0.00 0.00 0.00 40 1016.6
20210304191050 70 162 19.0 26.0 0.00 0.00 0.00 42 1016.6
20210304190521 69 140 17.0 26.0 0.00 0.00 0.00 43 1016.8
20210304190119 69 183 13.0 22.0 0.00 0.00 0.00 42 1017.0
20210304185908 69 169 18.0 23.0 0.00 0.00 0.00 42 1017.2
20210304185335 69 160 18.0 23.0 0.00 0.00 0.00 44 1017.2
20210304184543 69 141 20.0 23.0 0.00 0.00 0.00 44 1017.1
20210304184033 69 148 18.0 22.0 0.00 0.00 0.00 44 1017.4
20210304183519 69 190 18.0 24.0 0.00 0.00 0.00 45 1017.5
20210304183034 68 152 15.0 24.0 0.00 0.00 0.00 45 1017.4
20210304182817 68 154 19.0 23.0 0.00 0.00 0.00 44 1017.6
20210304182239 68 173 16.0 22.0 0.00 0.00 0.00 46 1017.7
20210304181530 68 158 19.0 22.0 0.00 0.00 0.00 44 1017.7
20210304181047 68 160 19.0 20.0 0.00 0.00 0.00 45 1018.1
20210304180521 68 190 13.0 20.0 0.00 0.00 0.00 45 1018.0
20210304180201 68 187 16.0 20.0 0.00 0.00 0.00 46 1018.1
20210304175905 68 156 18.0 20.0 0.00 0.00 0.00 46 1018.2
20210304175201 68 188 13.0 18.0 0.00 0.00 0.00 48 1018.3
20210304174530 67 168 14.0 18.0 0.00 0.00 0.00 47 1018.4
20210304174028 67 174 10.0 22.0 0.00 0.00 0.00 50 1018.6
20210304173532 66 167 16.0 22.0 0.00 0.00 0.00 49 1018.6
20210304173022 66 163 17.0 20.0 0.00 0.00 0.00 49 1018.5
20210304172805 66 170 14.0 18.0 0.00 0.00 0.00 50 1018.8
20210304172225 66 187 17.0 21.0 0.00 0.00 0.00 49 1018.8
20210304171526 65 189 13.0 23.0 0.00 0.00 0.00 52 1019.0
20210304171023 65 160 21.0 23.0 0.00 0.00 0.00 51 1019.0
20210304170740 64 169 15.0 20.0 0.00 0.00 0.00 52 1019.1
20210304170410 65 196 19.0 21.0 0.00 0.00 0.00 51 1019.2
20210304170153 64 172 14.0 21.0 0.00 0.00 0.00 53 1019.1
20210304165813 64 171 15.0 20.0 0.00 0.00 0.00 52 1019.3
20210304164524 65 162 20.0 20.0 0.00 0.00 0.00 51 1019.4
20210304164113 64 193 14.0 20.0 0.00 0.00 0.00 54 1019.3
20210304163519 64 168 15.0 20.0 0.00 0.00 0.00 55 1019.4
20210304163420 64 171 15.0 21.0 0.00 0.00 0.00 55 1019.7
20210304163308 63 198 11.0 21.0 0.00 0.00 0.00 59 1019.8
20210304163134 63 168 14.0 19.0 0.00 0.00 0.00 58 1019.6
20210304161547 62 195 13.0 19.0 0.00 0.00 0.00 58 1019.5
20210304161107 62 199 13.0 19.0 0.00 0.00 0.00 59 1019.7
20210304160529 62 176 15.0 21.0 0.00 0.00 0.00 60 1019.9
20210304160247 61 196 16.0 21.0 0.00 0.00 0.00 61 1019.9
20210304160056 61 201 19.0 20.0 0.00 0.00 0.00 61 1019.9
20210304155631 60 186 7.0 22.0 0.00 0.00 0.00 64 1020.1
20210304154608 60 202 18.0 22.0 0.00 0.00 0.00 63 1020.2
20210304154046 59 213 15.0 20.0 0.00 0.00 0.00 64 1020.2
20210304153536 59 198 14.0 20.0 0.00 0.00 0.00 64 1020.1
20210304153257 58 211 17.0 20.0 0.00 0.00 0.00 64 1020.0
20210304153036 58 198 15.0 20.0 0.00 0.00 0.00 65 1020.1
20210304152850 57 190 19.0 19.0 0.00 0.00 0.00 65 1020.2
20210304151522 57 212 16.0 22.0 0.00 0.00 0.00 66 1020.1
20210304151020 57 200 16.0 22.0 0.00 0.00 0.00 66 1019.9
20210304150536 56 197 15.0 24.0 0.00 0.00 0.00 67 1020.0
20210304150214 56 200 15.0 24.0 0.00 0.00 0.00 67 1020.1
20210304150042 55 200 17.0 20.0 0.00 0.00 0.00 68 1020.3
20210304145626 55 209 17.0 19.0 0.00 0.00 0.00 69 1020.2
20210304144533 54 202 16.0 19.0 0.00 0.00 0.00 70 1019.9
20210304144036 53 199 15.0 16.0 0.00 0.00 0.00 71 1019.7
20210304143519 53 192 14.0 15.0 0.00 0.00 0.00 73 1019.7
20210304143021 52 179 8.0 14.0 0.00 0.00 0.00 75 1019.7
20210304142742 51 191 10.0 13.0 0.00 0.00 0.00 75 1019.6
20210304142102 50 194 10.0 11.0 0.00 0.00 0.00 75 1019.5
20210304141530 50 174 8.0 13.0 0.00 0.00 0.00 75 1019.4
20210304141031 50 174 9.0 13.0 0.00 0.00 0.00 75 1019.5
20210304140527 49 170 10.0 12.0 0.00 0.00 0.00 74 1019.6
20210304140021 49 178 7.0 12.0 0.00 0.00 0.00 75 1019.6
20210304135738 48 166 9.0 12.0 0.00 0.00 0.00 75 1019.7
20210304135111 48 164 10.0 12.0 0.00 0.00 0.00 75 1019.7
20210304134522 48 171 9.0 11.0 0.00 0.00 0.00 76 1019.8
20210304134025 47 176 10.0 10.0 0.00 0.00 0.00 76 1019.8
20210304133521 47 172 8.0 10.0 0.00 0.00 0.00 77 1019.7
20210304133052 46 175 8.0 9.0 0.00 0.00 0.00 77 1019.7
20210304132916 46 175 8.0 9.0 0.00 0.00 0.00 77 1019.7
20210304132436 46 176 8.0 8.0 0.00 0.00 0.00 76 1019.7
20210304131541 46 178 7.0 8.0 0.00 0.00 0.00 76 1019.8
20210304131047 46 175 7.0 8.0 0.00 0.00 0.00 75 1019.7
20210304130520 46 170 7.0 8.0 0.00 0.00 0.00 75 1019.7
20210304130028 46 174 7.0 7.0 0.00 0.00 0.00 75 1019.8
20210304125710 46 178 7.0 7.0 0.00 0.00 0.00 74 1019.6
20210304125209 46 169 7.0 7.0 0.00 0.00 0.00 75 1019.6
20210304124536 46 163 6.0 7.0 0.00 0.00 0.00 75 1019.7
20210304124029 46 164 5.0 7.0 0.00 0.00 0.00 75 1019.7
20210304123534 46 163 6.0 7.0 0.00 0.00 0.00 76 1019.6
20210304123145 46 145 6.0 8.0 0.00 0.00 0.00 76 1019.4
20210304122636 46 140 7.0 9.0 0.00 0.00 0.00 76 1019.3
20210304121521 46 145 8.0 9.0 0.00 0.00 0.00 76 1019.2
20210304121022 46 149 9.0 9.0 0.00 0.00 0.00 75 1019.2
20210304120526 46 148 8.0 9.0 0.00 0.00 0.00 75 1019.1
20210304120211 46 148 7.0 9.0 0.00 0.00 0.00 75 1019.2
20210304115950 46 156 8.0 9.0 0.00 0.00 0.00 75 1019.3
20210304115248 46 157 7.0 9.0 0.00 0.00 0.00 74 1019.3
20210304114519 46 158 8.0 9.0 0.00 0.00 0.00 74 1019.2
20210304114038 46 145 8.0 9.0 0.00 0.00 0.00 74 1019.1
20210304113530 46 144 8.0 8.0 0.00 0.00 0.00 74 1019.2
20210304113133 46 151 6.0 8.0 0.00 0.00 0.00 74 1019.3
20210304112847 46 157 7.0 9.0 0.00 0.00 0.00 73 1019.3
20210304112255 46 167 8.0 9.0 0.00 0.00 0.00 73 1019.6
20210304111524 46 158 8.0 9.0 0.00 0.00 0.00 72 1019.4
20210304111025 47 157 7.0 9.0 0.00 0.00 0.00 72 1019.4
20210304110536 47 157 7.0 9.0 0.00 0.00 0.00 71 1019.3
20210304110318 47 159 8.0 8.0 0.00 0.00 0.00 71 1019.3
20210304110100 47 162 7.0 7.0 0.00 0.00 0.00 71 1019.4